HVDC transfer

From www.emi.ea.govt.nz provided by the Electricity Authority (New Zealand)
Run at: 20240503221952

Parameters
Date range,05 Jun 2020 - 05 Jun 2020
Time scale,Trading period
Show,Average flow (MW)

Period start,Period end,Trading period,Direction,Energy transfer (GWh),Peak flow (MW),Average flow (MW)
05/06/2020 00:00:00,05/06/2020 00:30:00,1,Northward at Haywards,0.014,27,27
05/06/2020 00:30:00,05/06/2020 01:00:00,2,Southward at Benmore,-0.009,-19,-19
05/06/2020 01:00:00,05/06/2020 01:30:00,3,Southward at Benmore,-0.014,-28,-28
05/06/2020 01:30:00,05/06/2020 02:00:00,4,Southward at Benmore,-0.025,-50,-50
05/06/2020 02:00:00,05/06/2020 02:30:00,5,Southward at Benmore,-0.044,-89,-89
05/06/2020 02:30:00,05/06/2020 03:00:00,6,Southward at Benmore,-0.052,-104,-104
05/06/2020 03:00:00,05/06/2020 03:30:00,7,Southward at Benmore,-0.046,-93,-93
05/06/2020 03:30:00,05/06/2020 04:00:00,8,Southward at Benmore,-0.046,-93,-93
05/06/2020 04:00:00,05/06/2020 04:30:00,9,Southward at Benmore,-0.051,-103,-103
05/06/2020 04:30:00,05/06/2020 05:00:00,10,Southward at Benmore,-0.044,-89,-89
05/06/2020 05:00:00,05/06/2020 05:30:00,11,Northward at Haywards,0.012,23,23
05/06/2020 05:30:00,05/06/2020 06:00:00,12,Northward at Haywards,0.025,49,49
05/06/2020 06:00:00,05/06/2020 06:30:00,13,Northward at Haywards,0.061,121,121
05/06/2020 06:30:00,05/06/2020 07:00:00,14,Northward at Haywards,0.109,217,217
05/06/2020 07:00:00,05/06/2020 07:30:00,15,Northward at Haywards,0.131,261,261
05/06/2020 07:30:00,05/06/2020 08:00:00,16,Northward at Haywards,0.158,315,315
05/06/2020 08:00:00,05/06/2020 08:30:00,17,Northward at Haywards,0.167,333,333
05/06/2020 08:30:00,05/06/2020 09:00:00,18,Northward at Haywards,0.166,332,332
05/06/2020 09:00:00,05/06/2020 09:30:00,19,Northward at Haywards,0.138,276,276
05/06/2020 09:30:00,05/06/2020 10:00:00,20,Northward at Haywards,0.150,300,300
05/06/2020 10:00:00,05/06/2020 10:30:00,21,Northward at Haywards,0.170,339,339
05/06/2020 10:30:00,05/06/2020 11:00:00,22,Northward at Haywards,0.175,350,350
05/06/2020 11:00:00,05/06/2020 11:30:00,23,Northward at Haywards,0.185,369,369
05/06/2020 11:30:00,05/06/2020 12:00:00,24,Northward at Haywards,0.188,376,376
05/06/2020 12:00:00,05/06/2020 12:30:00,25,Northward at Haywards,0.208,416,416
05/06/2020 12:30:00,05/06/2020 13:00:00,26,Northward at Haywards,0.216,432,432
05/06/2020 13:00:00,05/06/2020 13:30:00,27,Northward at Haywards,0.219,437,437
05/06/2020 13:30:00,05/06/2020 14:00:00,28,Northward at Haywards,0.208,415,415
05/06/2020 14:00:00,05/06/2020 14:30:00,29,Northward at Haywards,0.207,414,414
05/06/2020 14:30:00,05/06/2020 15:00:00,30,Northward at Haywards,0.206,411,411
05/06/2020 15:00:00,05/06/2020 15:30:00,31,Northward at Haywards,0.202,404,404
05/06/2020 15:30:00,05/06/2020 16:00:00,32,Northward at Haywards,0.200,400,400
05/06/2020 16:00:00,05/06/2020 16:30:00,33,Northward at Haywards,0.212,424,424
05/06/2020 16:30:00,05/06/2020 17:00:00,34,Northward at Haywards,0.221,442,442
05/06/2020 17:00:00,05/06/2020 17:30:00,35,Northward at Haywards,0.211,421,421
05/06/2020 17:30:00,05/06/2020 18:00:00,36,Northward at Haywards,0.247,494,494
05/06/2020 18:00:00,05/06/2020 18:30:00,37,Northward at Haywards,0.232,463,463
05/06/2020 18:30:00,05/06/2020 19:00:00,38,Northward at Haywards,0.237,473,473
05/06/2020 19:00:00,05/06/2020 19:30:00,39,Northward at Haywards,0.232,463,463
05/06/2020 19:30:00,05/06/2020 20:00:00,40,Northward at Haywards,0.219,437,437
05/06/2020 20:00:00,05/06/2020 20:30:00,41,Northward at Haywards,0.185,369,369
05/06/2020 20:30:00,05/06/2020 21:00:00,42,Northward at Haywards,0.168,336,336
05/06/2020 21:00:00,05/06/2020 21:30:00,43,Northward at Haywards,0.167,333,333
05/06/2020 21:30:00,05/06/2020 22:00:00,44,Northward at Haywards,0.131,261,261
05/06/2020 22:00:00,05/06/2020 22:30:00,45,Northward at Haywards,0.156,311,311
05/06/2020 22:30:00,05/06/2020 23:00:00,46,Northward at Haywards,0.142,283,283
05/06/2020 23:00:00,05/06/2020 23:30:00,47,Northward at Haywards,0.140,279,279
05/06/2020 23:30:00,06/06/2020 00:00:00,48,Northward at Haywards,0.112,224,224
